Zurück zum Katalog

OASIS ALPHA

AktivWissenschaftSSO
NORAD 69880·PAYLOAD·🇩🇪 Germany
Dieser Satellitenname wurde noch nicht durch offizielle Quellen bestätigt.

Gestartet Jul 7, 2026 von Vandenberg Space Force Base

Loading…

Nächste Überflüge (nächste 24 Stunden)

TLE

AktuellSource: Space-Track

Epoche: Sep 14, 2026, 04:37 UTC

1 69880U 26156M   26257.19279434  .00001554  00000-0  16194-3 0  9991
2 69880  97.7374 156.3535 0003163 246.2680 113.8207 14.91200146 10268

Verfolge OASIS ALPHA in Echtzeit mit AllMySat

Download on the App Store